Temp
9 11 11 9 8 7 6 5 6 6 7 10 11 11 10 10 11 9 8 6 4 8 9 7 7 8 10 11 7 4 2 2 3 4 3 3 3 3 2 2 2 1 1 0 1 3 4 4 4 3 3 3 3 3 3 3 3 3 3 3 3 3 3 3 3 3 3 2 2 2 2 2 2 2 2 2 2 2 2 2 2 2 2 1 1 1
10 11 9 7 6 5 5 4 4 6 8 10 12 12 10 9 10 9 8 7 5 8 9 6 7 10 10 11 8 3 3 4 4 5 5 4 4 3 3 3 2 1 1 0 0 1 3 4 4 4 3 3 3 3 3 3 3 3 3 3 3 3 3 3 3 2 2 2 2 2 2 2 2 2 1 1 2 1 1 1 1 1 1 1 0 0
11 10 8 6 5 4 4 4 5 8 10 11 10 11 11 9 9 9 7 6 5 8 10 7 8 11 10 9 6 3 4 5 4 4 5 5 4 3 3 3 2 2 2 2 1 1 2 3 4 4 3 3 3 3 3 3 3 3 2 3 3 3 3 2 2 2 2 2 2 1 1 1 1 1 1 1 1 1 1 1 1 1 0 0 0 0
12 10 7 5 4 6 7 5 6 10 10 10 10 11 11 9 9 11 9 7 6 6 8 7 8 9 9 8 7 4 3 4 4 3 3 3 4 4 3 3 3 3 3 3 2 1 2 2 2 3 3 4 4 3 3 3 3 3 3 3 3 3 3 3 3 2 2 2 2 1 1 0 0 0 0 0 1 1 0 0 1 1 1 0 0 0
11 8 4 4 4 6 9 9 9 12 11 9 9 11 10 9 9 10 9 7 7 6 5 7 9 11 11 10 10 6 2 3 3 3 3 2 2 2 2 2 2 2 3 3 3 2 1 2 2 2 3 3 3 4 4 4 4 4 4 4 3 3 3 3 3 3 2 2 2 1 1 0 -0 0 0 0 1 1 1 1 1 1 1 0 0 -0
9 5 3 6 6 6 9 10 8 10 11 10 9 9 9 9 8 8 8 8 10 10 7 7 11 13 12 12 13 8 5 5 4 3 5 4 2 2 2 3 2 2 2 1 2 2 1 1 1 2 1 2 3 4 4 4 4 4 4 3 3 3 3 3 3 2 1 0 0 0 -0 -1 -1 -1 -0 0 1 1 0 0 0 -0 -0 -1 -1 -1
8 5 4 7 8 8 9 10 7 6 11 12 8 6 6 7 7 7 8 10 11 11 7 7 10 12 11 13 12 7 6 7 5 5 5 4 3 3 3 3 3 2 2 1 1 0 0 1 1 2 2 2 3 4 3 3 3 3 3 3 2 2 2 2 2 1 -0 -1 -1 -1 -2 -2 -2 -2 -1 -0 -0 -1 -2 -2 -2 -2 -2 -2 -2 -2
8 7 7 8 9 10 10 10 7 6 11 12 6 5 6 7 7 7 8 10 10 9 8 7 8 9 10 11 8 5 8 10 9 10 9 6 4 3 3 3 2 2 2 2 2 1 0 1 1 2 3 3 3 3 3 2 2 2 2 1 1 1 1 1 1 -0 -1 -1 -2 -2 -3 -3 -3 -3 -2 -2 -2 -3 -3 -3 -3 -3 -3 -3 -3 -3
7 9 9 9 10 11 10 9 7 6 10 9 4 4 5 5 6 6 8 10 7 8 10 8 7 8 10 11 7 5 10 12 11 12 12 11 9 5 4 3 2 2 1 1 2 1 0 1 2 2 3 3 2 2 2 2 2 1 1 1 0 0 0 0 -0 -1 -1 -1 -2 -3 -3 -3 -3 -3 -3 -3 -3 -4 -4 -4 -4 -4 -4 -4 -4 -4
7 7 6 8 10 10 9 7 6 7 9 6 3 4 4 4 5 6 8 9 7 9 11 8 6 8 10 12 10 8 10 12 12 12 12 12 11 8 6 4 3 2 2 0 -0 0 1 1 2 2 2 3 2 1 1 1 0 0 0 -0 -0 -0 -0 -1 -1 -1 -2 -2 -2 -3 -3 -3 -3 -3 -4 -4 -4 -4 -5 -5 -4 -4 -4 -4 -5 -5
6 4 4 6 8 8 7 5 4 5 6 4 4 6 7 6 6 6 7 8 9 10 10 6 5 6 9 12 12 11 12 13 13 12 11 11 11 9 6 5 4 3 2 0 -1 -1 1 1 1 1 1 1 1 0 0 -0 -0 -1 -1 -1 -1 -1 -1 -1 -2 -2 -2 -2 -3 -3 -3 -4 -4 -4 -4 -5 -5 -5 -5 -5 -5 -5 -5 -5 -5 -6
7 7 6 6 6 5 6 6 3 3 4 4 6 8 9 9 8 8 8 8 10 12 9 5 4 5 8 11 12 11 10 10 12 13 13 12 12 10 7 5 4 2 1 1 -1 -2 -1 -0 1 0 0 0 0 0 -1 -1 -1 -1 -2 -2 -2 -2 -3 -3 -3 -3 -3 -3 -3 -4 -4 -4 -4 -4 -5 -5 -5 -5 -5 -5 -5 -5 -5 -5 -6 -6
10 10 8 6 5 4 7 9 6 4 4 5 7 9 11 11 10 11 11 9 10 10 7 4 5 6 7 10 11 11 10 9 10 11 12 12 11 9 7 5 4 3 2 1 2 -1 -3 -2 -1 -1 -1 -1 -1 -1 -2 -2 -2 -2 -2 -3 -3 -3 -4 -3 -4 -4 -4 -4 -4 -4 -5 -5 -5 -5 -5 -5 -5 -6 -6 -6 -6 -6 -6 -6 -6 -6
12 10 8 8 7 5 7 10 11 9 8 8 9 11 12 11 10 11 9 7 9 9 5 3 5 7 9 10 11 11 11 9 8 8 8 8 8 7 5 4 4 3 1 1 1 -1 -3 -3 -2 -2 -2 -2 -3 -3 -3 -3 -3 -3 -3 -4 -4 -4 -4 -4 -4 -4 -5 -5 -5 -5 -5 -5 -5 -5 -5 -5 -6 -6 -6 -6 -6 -6 -6 -6 -6 -6
13 13 10 10 9 6 7 8 9 10 9 8 6 9 12 11 11 11 10 10 10 8 6 4 7 10 11 12 10 9 9 8 7 6 4 4 3 3 3 3 4 3 1 -0 -0 -2 -3 -3 -2 -3 -3 -3 -3 -4 -4 -4 -4 -4 -4 -5 -5 -5 -5 -5 -5 -5 -5 -5 -5 -6 -6 -6 -6 -6 -6 -6 -6 -6 -6 -6 -6 -6 -6 -6 -6 -7
11 13 9 7 6 6 8 6 5 8 9 6 4 8 11 11 11 9 5 6 6 6 6 7 8 9 10 10 8 7 8 7 5 3 2 4 2 2 5 5 4 3 -0 -1 -0 -2 -3 -3 -3 -3 -4 -4 -4 -4 -5 -5 -5 -5 -6 -6 -6 -6 -6 -6 -6 -6 -7 -7 -7 -7 -7 -7 -7 -7 -7 -7 -6 -6 -6 -6 -6 -6 -6 -6 -7 -7
12 12 8 6 6 5 6 5 4 7 10 7 6 9 8 5 8 8 4 1 2 5 7 6 9 9 9 11 10 8 9 9 7 4 3 4 3 4 7 7 4 2 0 -1 -1 -3 -3 -3 -4 -4 -5 -5 -5 -5 -6 -6 -6 -7 -7 -7 -7 -7 -8 -8 -8 -8 -8 -8 -8 -8 -8 -8 -8 -8 -8 -8 -7 -7 -7 -7 -6 -6 -7 -7 -7 -7
10 12 8 6 8 6 3 4 5 5 6 8 9 9 5 4 7 8 7 5 3 6 6 5 8 10 9 11 11 10 11 11 9 7 5 5 5 6 7 5 3 1 -1 -2 -2 -3 -4 -4 -5 -5 -5 -6 -6 -6 -7 -7 -7 -8 -8 -8 -8 -9 -9 -9 -9 -9 -9 -9 -9 -9 -9 -9 -9 -9 -9 -8 -8 -8 -8 -7 -7 -7 -7 -7 -7 -8
7 12 10 4 7 6 3 5 7 5 4 7 8 6 6 8 9 7 7 8 7 7 7 4 4 7 8 9 11 11 12 13 11 8 6 6 6 7 6 4 3 1 -1 -1 -2 -3 -4 -5 -5 -6 -6 -7 -7 -7 -8 -8 -8 -8 -9 -9 -9 -9 -10 -10 -10 -10 -10 -10 -10 -10 -9 -9 -9 -9 -9 -9 -9 -9 -8 -8 -8 -7 -7 -8 -8 -9
6 11 12 6 5 6 6 7 9 8 5 5 6 5 5 7 8 7 6 7 7 7 7 5 4 7 8 7 10 12 12 13 13 10 8 7 6 6 5 5 3 1 -0 -1 -3 -4 -5 -6 -6 -6 -7 -7 -7 -8 -8 -8 -9 -9 -9 -10 -10 -10 -10 -10 -10 -11 -10 -10 -10 -10 -10 -10 -10 -10 -10 -10 -9 -9 -9 -9 -8 -8 -8 -9 -9 -10
6 9 11 8 5 6 9 8 9 10 8 6 7 6 6 5 4 5 5 4 7 8 6 5 6 9 8 7 10 12 12 13 13 11 9 7 6 6 4 4 3 1 -1 -2 -3 -4 -5 -6 -6 -7 -7 -7 -8 -8 -8 -9 -9 -9 -10 -10 -11 -11 -11 -11 -11 -11 -11 -11 -11 -11 -10 -10 -10 -10 -10 -10 -10 -10 -10 -10 -10 -9 -10 -10 -10 -10
7 8 9 9 8 9 10 7 4 7 7 8 9 8 7 6 5 7 6 3 3 6 6 5 7 9 9 9 10 11 12 13 10 9 9 7 6 5 4 3 2 -0 -1 -2 -4 -5 -6 -6 -7 -7 -7 -8 -8 -9 -9 -10 -10 -10 -10 -11 -11 -11 -12 -12 -12 -12 -11 -11 -11 -11 -11 -11 -11 -11 -11 -10 -10 -11 -11 -11 -11 -11 -11 -11 -11 -11
5 7 8 9 9 9 8 3 1 3 4 5 7 6 6 7 7 9 9 5 3 3 2 2 4 8 9 9 10 10 10 9 6 6 7 7 5 5 3 2 -0 -1 -2 -3 -5 -5 -6 -6 -7 -7 -8 -8 -9 -9 -10 -10 -10 -11 -11 -11 -11 -12 -12 -12 -12 -12 -12 -12 -12 -12 -11 -11 -11 -11 -11 -11 -11 -11 -11 -11 -11 -11 -12 -12 -12 -12
5 7 8 9 9 8 5 1 1 2 3 5 5 3 4 6 6 7 6 5 4 4 3 2 4 8 8 5 4 5 4 4 4 4 6 6 5 4 3 1 -1 -2 -3 -4 -5 -6 -7 -7 -7 -8 -8 -9 -9 -10 -10 -10 -11 -11 -11 -12 -12 -12 -12 -12 -12 -12 -12 -12 -12 -12 -12 -12 -12 -12 -12 -12 -12 -12 -12 -12 -12 -12 -12 -12 -12 -12
7 8 8 9 10 10 8 7 6 4 4 6 5 3 3 4 3 3 2 2 4 5 6 6 6 9 8 3 2 3 3 4 4 3 4 5 5 4 1 -1 -2 -3 -4 -5 -6 -6 -7 -7 -8 -8 -9 -9 -10 -10 -11 -11 -11 -12 -12 -12 -12 -12 -13 -13 -13 -13 -13 -13 -13 -13 -13 -12 -13 -13 -13 -13 -13 -13 -13 -12 -12 -12 -12 -12 -12 -12
7 8 8 10 11 11 11 12 11 9 6 5 5 3 3 3 3 5 5 4 5 5 4 6 8 9 8 5 5 4 4 5 5 4 4 4 4 3 1 -2 -2 -3 -4 -5 -6 -6 -7 -7 -8 -8 -9 -9 -10 -10 -11 -11 -12 -12 -12 -12 -12 -13 -13 -13 -13 -13 -13 -13 -13 -13 -13 -13 -13 -13 -13 -13 -13 -13 -13 -13 -13 -13 -13 -13 -13 -13
5 5 6 9 10 10 12 11 8 7 7 7 6 5 4 3 3 5 5 5 5 4 4 6 7 8 8 7 7 7 6 6 6 5 5 4 3 2 -0 -2 -3 -3 -4 -6 -6 -7 -7 -8 -8 -9 -9 -10 -10 -11 -11 -12 -12 -13 -13 -13 -13 -13 -13 -13 -14 -14 -13 -13 -13 -13 -13 -14 -14 -14 -14 -14 -14 -14 -13 -13 -14 -14 -14 -14 -14 -14
5 6 5 6 8 8 9 8 5 5 6 7 6 6 5 3 2 3 5 6 6 5 6 7 7 6 7 8 8 8 7 7 6 6 6 5 3 1 -1 -2 -3 -4 -5 -6 -7 -7 -7 -8 -8 -9 -9 -10 -11 -11 -12 -13 -13 -13 -13 -13 -13 -13 -13 -13 -14 -14 -14 -14 -14 -14 -14 -14 -14 -14 -14 -14 -14 -14 -14 -14 -14 -14 -14 -14 -14 -14
6 6 4 4 5 6 5 5 4 4 4 5 5 5 5 3 2 3 4 5 5 6 7 8 7 6 7 8 8 8 7 6 7 6 5 4 3 1 -1 -2 -3 -4 -5 -6 -7 -7 -7 -8 -9 -9 -10 -11 -11 -12 -13 -13 -13 -13 -13 -13 -13 -13 -13 -14 -14 -14 -14 -14 -14 -14 -15 -15 -15 -15 -15 -15 -15 -15 -15 -15 -15 -15 -15 -15 -15 -15
5 6 3 1 4 5 4 3 3 3 3 3 3 3 3 3 2 3 4 5 5 5 6 7 6 6 7 7 8 7 7 6 5 4 3 3 2 0 -1 -2 -3 -4 -5 -6 -7 -7 -7 -8 -9 -10 -10 -11 -12 -13 -13 -13 -13 -13 -14 -14 -14 -14 -14 -14 -14 -14 -14 -15 -15 -15 -15 -15 -15 -15 -15 -15 -15 -15 -15 -15 -15 -15 -15 -15 -15 -15
4 5 2 1 4 5 4 3 3 2 2 2 3 3 3 2 2 2 2 3 3 4 4 5 4 4 5 7 6 6 6 5 4 4 2 2 1 0 -1 -2 -3 -4 -5 -6 -6 -7 -8 -9 -10 -10 -11 -12 -12 -13 -13 -13 -14 -14 -14 -15 -15 -15 -15 -14 -15 -15 -15 -15 -15 -15 -16 -16 -16 -16 -16 -16 -16 -16 -16 -16 -16 -16 -16 -16 -16 -16
3 4 2 2 6 6 4 2 3 3 3 3 4 5 4 3 2 2 2 2 3 3 3 3 3 3 5 6 5 5 5 4 4 3 2 1 0 -0 -0 -1 -2 -3 -5 -6 -7 -7 -8 -9 -11 -11 -12 -12 -12 -13 -14 -14 -14 -14 -15 -15 -15 -15 -15 -15 -15 -15 -15 -16 -16 -16 -16 -16 -16 -16 -16 -16 -16 -16 -16 -16 -16 -16 -16 -17 -17 -17
1 4 4 3 6 7 3 1 3 4 5 8 8 9 9 7 4 3 3 2 2 3 3 3 4 6 6 6 6 6 5 4 4 4 3 2 0 -1 -1 -1 -2 -4 -5 -6 -7 -8 -8 -9 -11 -11 -12 -12 -13 -13 -14 -14 -14 -15 -15 -16 -16 -16 -16 -15 -16 -16 -16 -16 -16 -16 -16 -16 -17 -17 -17 -17 -17 -17 -17 -17 -17 -17 -17 -17 -17 -17
-2 2 4 2 6 7 3 2 4 5 8 10 9 7 9 9 7 5 5 4 3 3 3 4 5 6 6 6 6 6 6 5 5 4 3 2 1 -0 -1 -2 -3 -5 -6 -7 -7 -8 -9 -10 -11 -11 -12 -13 -13 -14 -14 -15 -15 -15 -15 -16 -16 -16 -16 -16 -16 -16 -16 -17 -17 -17 -17 -17 -17 -17 -17 -17 -17 -18 -18 -17 -18 -18 -18 -18 -18 -18
-1 2 2 1 3 5 3 3 7 9 10 10 7 5 6 6 6 6 6 6 4 3 3 4 5 5 6 5 5 5 5 4 3 3 1 1 1 0 -1 -3 -5 -6 -6 -7 -8 -9 -10 -11 -11 -12 -13 -13 -14 -14 -14 -15 -15 -15 -16 -16 -16 -16 -16 -17 -17 -17 -17 -17 -17 -17 -17 -18 -18 -18 -18 -18 -18 -18 -18 -18 -18 -18 -18 -18 -18 -18
1 2 2 1 2 3 4 5 8 10 10 9 8 6 5 4 4 4 6 7 5 4 3 3 4 5 5 5 4 3 2 1 1 1 -0 -1 -1 -1 -1 -2 -5 -6 -7 -7 -8 -9 -10 -11 -11 -12 -13 -13 -14 -14 -15 -15 -15 -16 -16 -16 -16 -17 -17 -17 -17 -17 -18 -18 -18 -18 -18 -18 -18 -18 -19 -19 -19 -19 -19 -19 -19 -19 -19 -19 -19 -19
2 2 3 3 2 3 4 4 6 7 8 9 9 6 4 5 5 5 6 8 7 6 4 3 4 5 4 4 4 1 -0 -0 1 2 1 -1 -2 -3 -3 -4 -5 -7 -7 -8 -9 -9 -10 -11 -12 -12 -13 -13 -14 -14 -15 -15 -16 -16 -16 -17 -17 -17 -17 -18 -18 -18 -18 -18 -18 -18 -19 -19 -19 -19 -19 -19 -19 -19 -19 -19 -19 -19 -19 -19 -19 -19
1 2 4 4 3 2 2 3 4 6 9 10 8 5 4 5 5 6 6 6 8 8 6 5 5 5 5 5 3 -0 -0 2 4 4 2 -2 -4 -5 -5 -7 -8 -8 -8 -9 -10 -10 -11 -12 -12 -13 -13 -14 -14 -15 -15 -16 -16 -16 -17 -17 -17 -18 -18 -18 -18 -18 -18 -18 -19 -19 -19 -19 -19 -19 -19 -19 -20 -20 -20 -20 -20 -20 -20 -20 -20 -20
0 1 2 3 3 1 2 3 4 6 9 9 6 5 4 3 4 6 6 6 8 8 6 6 7 7 7 5 2 0 2 3 4 5 2 -2 -5 -5 -6 -8 -9 -9 -9 -10 -10 -11 -12 -13 -13 -14 -14 -15 -15 -15 -16 -16 -16 -17 -17 -17 -18 -18 -18 -18 -18 -18 -18 -18 -19 -19 -19 -19 -19 -19 -20 -20 -20 -20 -20 -20 -20 -20 -20 -20 -21 -21
-0 1 1 1 2 1 1 3 3 4 6 6 6 5 3 2 4 6 6 7 9 8 5 5 7 8 7 5 1 1 4 5 5 4 1 -3 -6 -7 -7 -8 -10 -10 -11 -11 -11 -11 -12 -13 -14 -14 -15 -15 -15 -16 -16 -17 -17 -17 -17 -18 -18 -18 -18 -18 -18 -18 -18 -18 -19 -19 -19 -19 -19 -19 -19 -19 -20 -20 -20 -20 -20 -20 -20 -21 -21 -21
-1 -0 0 0 1 0 0 2 2 3 5 6 5 5 3 3 5 6 7 8 9 8 5 4 7 9 6 3 2 3 4 4 2 -0 -4 -6 -6 -7 -9 -9 -10 -10 -11 -11 -12 -12 -13 -14 -14 -14 -15 -15 -16 -16 -17 -17 -18 -18 -18 -18 -19 -18 -18 -18 -18 -19 -19 -19 -19 -19 -19 -19 -19 -19 -19 -19 -20 -20 -20 -20 -20 -21 -21 -21 -21 -21
1 -0 -1 -1 -0 0 0 1 1 3 5 5 4 4 3 5 6 7 7 7 7 8 5 3 6 7 4 3 3 3 3 1 -1 -3 -5 -7 -6 -7 -9 -10 -11 -12 -12 -12 -13 -13 -14 -14 -15 -15 -15 -16 -16 -17 -17 -18 -18 -18 -19 -19 -18 -18 -18 -19 -19 -19 -19 -19 -19 -19 -19 -19 -19 -20 -20 -20 -20 -20 -20 -20 -21 -21 -21 -21 -21 -22
4 4 1 -1 -0 1 -0 -1 1 5 6 4 4 4 3 6 9 9 8 6 5 7 6 3 4 4 3 2 2 1 1 -0 -3 -4 -5 -7 -7 -8 -10 -11 -12 -13 -13 -13 -13 -14 -14 -15 -15 -15 -16 -16 -17 -17 -18 -18 -18 -19 -19 -19 -18 -18 -19 -19 -19 -19 -19 -19 -19 -19 -19 -20 -20 -20 -20 -20 -21 -21 -21 -21 -21 -21 -21 -22 -22 -22
5 7 6 3 2 3 2 1 4 7 6 3 6 9 6 6 7 7 7 7 5 5 5 4 4 3 1 2 2 1 0 -1 -3 -4 -6 -7 -7 -8 -10 -11 -12 -13 -13 -13 -14 -14 -14 -15 -15 -16 -16 -16 -17 -17 -18 -18 -19 -19 -19 -18 -18 -19 -19 -19 -19 -19 -19 -19 -19 -19 -20 -20 -20 -20 -20 -20 -21 -21 -21 -21 -21 -21 -22 -22 -23 -23
7 8 9 7 5 5 6 6 6 6 5 3 5 8 7 6 5 4 4 5 4 4 3 4 4 3 1 0 1 1 -0 -1 -3 -4 -5 -6 -7 -9 -10 -11 -12 -13 -13 -14 -14 -14 -15 -15 -15 -16 -16 -17 -17 -18 -18 -19 -19 -19 -19 -18 -18 -19 -19 -19 -19 -19 -19 -19 -19 -19 -20 -20 -20 -20 -20 -20 -21 -21 -21 -21 -22 -22 -22 -22 -23 -23
7 6 6 7 6 6 7 8 7 7 7 5 4 5 4 4 4 3 3 4 4 3 3 2 3 3 1 -1 -1 -0 -1 -1 -3 -4 -5 -6 -8 -9 -11 -12 -13 -13 -13 -14 -14 -14 -15 -16 -16 -17 -17 -17 -17 -18 -18 -19 -19 -19 -18 -18 -19 -19 -19 -19 -20 -19 -19 -19 -19 -20 -20 -20 -20 -20 -20 -20 -21 -22 -22 -22 -23 -23 -22 -23 -23 -23
7 5 5 6 7 6 7 8 8 7 7 6 6 5 5 4 4 3 3 3 3 3 3 2 2 2 -0 -1 -1 -1 -1 -2 -3 -4 -6 -7 -8 -10 -12 -13 -13 -14 -14 -14 -14 -15 -15 -16 -17 -17 -17 -17 -17 -17 -18 -18 -19 -18 -18 -18 -19 -19 -19 -20 -20 -19 -20 -20 -20 -20 -21 -21 -21 -21 -21 -21 -21 -22 -22 -22 -23 -23 -23 -23 -24 -24
7 5 5 6 6 6 6 7 7 6 6 6 6 6 5 5 5 4 3 3 2 2 1 0 -0 -0 -1 -1 -1 -1 -2 -3 -4 -5 -6 -8 -9 -10 -12 -13 -14 -14 -14 -14 -14 -15 -16 -16 -17 -17 -17 -17 -17 -17 -18 -18 -18 -18 -18 -19 -19 -20 -20 -20 -20 -20 -20 -20 -20 -21 -21 -21 -21 -22 -22 -22 -22 -22 -22 -22 -23 -23 -23 -23 -23 -24
6 6 6 6 6 5 6 6 6 6 6 7 7 7 6 5 5 4 3 2 1 1 0 -1 -2 -2 -2 -2 -2 -3 -3 -4 -5 -6 -7 -8 -9 -11 -12 -13 -14 -14 -14 -14 -15 -15 -16 -16 -16 -17 -17 -17 -17 -18 -18 -18 -18 -18 -19 -19 -19 -20 -20 -20 -20 -20 -21 -21 -21 -21 -21 -21 -22 -22 -23 -23 -22 -22 -22 -22 -23 -24 -24 -23 -23 -24
5 6 7 6 5 5 6 6 7 6 5 6 7 7 6 5 4 4 3 2 1 1 0 -1 -2 -4 -4 -4 -3 -4 -3 -4 -6 -7 -8 -9 -10 -11 -13 -13 -14 -14 -14 -15 -15 -16 -16 -16 -17 -17 -17 -17 -18 -18 -18 -18 -18 -18 -19 -19 -20 -20 -20 -20 -21 -21 -21 -21 -21 -21 -21 -22 -22 -22 -23 -23 -23 -23 -23 -22 -22 -23 -24 -24 -23 -23
6 6 6 5 5 5 6 6 6 5 5 5 6 5 4 3 3 3 3 3 2 1 -1 -1 -1 -3 -4 -5 -6 -5 -4 -5 -8 -9 -9 -10 -12 -12 -13 -13 -14 -15 -15 -15 -15 -16 -17 -17 -17 -18 -18 -18 -18 -18 -18 -18 -18 -18 -18 -19 -20 -20 -21 -21 -21 -21 -21 -21 -21 -21 -22 -22 -22 -23 -23 -23 -24 -24 -24 -23 -23 -22 -22 -23 -23 -24
Height
851 853 863 869 875 879 882 886 882 882 881 868 863 864 869 870 867 875 878 884 891 876 871 880 879 872 863 859 869 878 882 882 878 877 876 876 876 876 877 877 877 877 874 872 873 874 875 875 876 877 877 878 878 878 878 878 878 879 880 879 879 880 881 881 880 881 880 880 880 879 879 878 878 878 878 877 877 876 876 876 875 875 875 874 874 874
851 857 875 881 884 887 886 890 889 884 878 868 863 863 871 875 869 875 881 883 891 877 871 885 878 863 858 856 865 877 877 873 871 871 871 871 873 873 874 874 873 873 871 871 871 871 872 872 873 874 875 875 875 875 875 876 876 876 877 877 877 878 879 878 878 879 878 878 878 877 877 876 876 876 875 874 874 873 873 872 872 871 871 871 871 870
858 865 878 884 888 890 888 891 887 877 871 867 869 868 867 875 875 875 882 885 889 878 868 879 872 855 854 858 865 873 870 864 866 867 867 867 869 870 870 871 871 870 869 868 868 868 868 869 870 871 872 872 871 872 873 873 873 874 874 874 874 875 876 876 876 876 875 876 877 876 875 875 874 873 873 872 871 870 869 868 868 868 868 868 868 867
857 869 881 887 889 885 881 887 882 869 868 871 871 867 866 879 877 866 875 885 888 885 877 877 874 860 855 858 860 866 868 865 866 867 867 868 866 865 867 869 869 867 866 866 865 866 866 866 868 868 868 869 869 869 869 870 871 871 871 871 873 873 873 873 873 873 873 874 874 874 873 873 871 870 870 869 868 867 866 866 866 866 866 866 865 865
862 877 888 889 888 884 873 875 874 861 864 877 874 868 869 878 877 870 877 885 883 887 887 876 862 849 847 848 847 860 871 867 867 868 866 866 866 866 868 867 866 865 864 865 863 863 865 864 865 865 866 867 866 866 866 868 869 869 869 869 870 871 870 870 871 870 871 871 871 871 870 870 869 867 867 866 864 864 864 863 863 864 864 864 863 863
872 885 889 883 882 883 872 869 877 871 863 871 876 878 878 878 881 880 880 879 868 868 880 877 855 839 839 839 836 851 864 861 865 868 860 861 864 866 866 862 862 863 862 863 862 860 862 862 863 863 864 865 864 864 865 866 867 867 867 868 868 868 868 868 868 868 869 869 868 868 867 866 865 864 863 862 860 861 862 861 861 862 862 862 862 861
877 886 887 881 877 876 872 871 883 884 865 861 879 888 886 884 884 882 878 871 861 862 878 882 866 853 844 832 837 857 861 855 860 861 857 860 862 861 860 858 858 860 860 861 860 859 859 860 861 861 861 863 862 863 864 864 865 865 865 866 866 865 865 865 865 866 866 866 865 865 865 864 863 862 859 859 860 860 860 859 859 859 859 860 860 859
878 879 880 878 873 869 868 869 882 887 866 861 885 893 886 885 883 882 877 869 871 874 879 881 876 872 857 839 852 865 851 842 844 844 846 851 855 857 855 854 855 856 857 858 857 857 858 858 859 859 859 861 861 861 863 863 862 863 863 863 863 863 862 863 863 863 863 862 862 862 862 861 860 859 856 857 858 858 857 857 856 856 856 856 856 856
881 874 875 875 869 867 869 874 883 885 871 873 894 894 889 889 885 886 879 871 884 880 867 878 884 875 855 841 856 863 843 835 835 831 833 835 841 849 850 852 854 855 856 856 856 855 856 857 857 858 858 859 860 860 860 861 861 861 861 860 861 860 860 860 860 860 860 860 859 859 859 858 857 857 855 854 855 854 854 853 852 852 852 852 852 852
881 878 882 878 870 869 874 882 885 881 876 885 897 893 891 894 889 889 880 872 885 875 860 879 891 878 853 832 842 852 839 831 831 829 831 830 834 842 846 850 852 854 855 854 855 854 854 856 856 857 858 858 859 859 858 858 859 858 858 858 858 858 858 858 858 858 858 858 857 857 856 855 854 854 853 852 851 851 851 850 849 849 848 848 848 848
883 886 887 881 875 877 880 886 891 886 884 890 893 887 884 886 886 887 887 883 877 864 866 888 899 890 864 832 829 836 829 825 825 827 830 831 833 838 845 850 851 852 854 854 854 854 853 855 855 855 856 857 857 857 857 856 856 856 856 856 856 856 856 856 856 856 855 855 855 854 854 853 852 851 851 849 848 848 848 847 846 845 845 844 844 844
880 879 880 881 881 884 882 883 893 895 892 891 887 881 873 875 880 877 878 881 865 852 870 895 903 899 872 837 826 830 832 831 826 822 824 826 829 836 843 848 849 851 852 854 853 852 852 852 853 854 854 855 855 854 855 855 855 855 854 855 855 855 855 854 854 854 853 853 853 852 852 851 850 849 848 847 845 845 845 844 843 842 842 841 841 841
871 870 875 881 882 885 878 872 883 890 891 888 881 874 862 862 869 861 863 877 867 860 883 900 897 890 867 839 828 827 829 834 832 827 825 826 829 836 843 845 847 849 850 851 852 850 851 851 851 853 852 853 854 854 855 854 854 855 854 854 854 853 854 853 852 852 852 852 851 850 850 848 847 846 846 844 843 843 842 841 840 840 839 838 838 838
861 867 874 874 875 883 878 865 864 869 876 876 871 862 853 861 869 862 873 888 876 868 891 909 897 873 849 831 825 823 822 829 835 834 833 834 836 839 843 846 846 848 849 849 851 850 849 850 850 852 852 853 854 853 854 854 854 854 853 853 853 853 852 851 851 850 850 850 849 848 847 846 845 844 843 842 841 840 839 838 837 836 836 835 835 835
857 856 864 868 871 878 878 872 868 867 870 876 882 872 856 860 861 858 867 867 863 873 891 900 883 851 830 821 823 826 827 831 833 837 841 842 844 845 844 846 845 846 849 849 849 850 848 849 850 851 852 852 853 853 853 853 853 852 852 852 852 851 851 850 849 848 848 847 847 846 845 844 843 842 840 839 838 837 836 835 834 833 833 833 832 832
867 856 867 877 879 879 875 879 884 875 868 882 894 877 860 860 860 876 896 891 890 894 887 882 865 843 830 822 826 832 828 831 835 840 844 839 843 846 840 840 844 845 849 849 848 848 848 849 850 850 852 852 852 853 852 853 853 852 852 851 851 851 850 849 848 847 846 845 844 843 842 841 840 839 838 836 835 835 834 833 832 831 830 830 829 829
863 855 874 881 879 882 879 880 886 875 866 879 881 866 873 884 872 880 909 926 925 899 878 878 858 839 835 819 818 827 820 822 831 835 839 838 840 840 834 836 843 845 847 847 846 847 847 849 850 850 852 852 852 853 853 853 852 852 852 851 850 850 848 848 846 846 845 843 842 841 840 839 838 836 835 834 833 832 831 830 829 828 827 827 826 826
868 855 871 882 872 880 889 884 885 885 878 874 869 868 883 889 880 878 885 901 912 892 878 886 863 838 838 823 812 819 815 813 823 829 834 836 835 833 833 838 842 844 846 845 844 846 847 849 850 851 852 852 853 853 853 853 852 852 851 850 850 848 847 847 846 845 844 842 841 840 838 837 836 834 833 831 830 828 828 827 826 825 824 824 824 823
883 857 863 888 879 877 891 882 874 883 887 876 870 879 881 868 869 881 878 873 882 883 877 889 888 860 843 832 815 810 811 807 813 826 830 829 830 831 833 837 841 842 843 842 844 846 847 849 850 851 852 852 853 852 852 852 851 851 850 849 849 848 847 846 845 844 843 841 840 839 837 836 834 833 831 829 827 825 824 824 823 823 822 821 821 821
888 862 855 881 885 879 881 876 866 870 884 885 879 884 885 876 873 878 884 879 873 876 874 881 887 854 827 829 816 803 808 806 806 818 824 825 829 830 832 833 836 838 839 841 844 845 847 849 849 850 851 851 852 851 851 851 850 849 849 848 847 847 846 845 844 843 841 840 839 838 837 835 833 831 829 827 825 824 822 821 821 820 820 820 820 820
888 873 858 869 884 879 866 865 862 857 868 876 875 879 882 889 893 885 890 893 876 871 876 880 869 830 811 823 814 802 806 804 803 809 815 824 827 827 831 832 832 836 838 840 843 844 847 848 849 850 850 850 850 850 850 849 849 848 847 847 846 846 845 844 843 841 840 840 838 837 836 834 832 830 828 827 824 823 821 820 819 819 819 819 819 819
881 876 867 866 871 861 852 867 876 867 867 865 861 867 868 875 884 874 877 896 893 880 878 880 859 815 801 811 807 803 803 800 809 814 814 822 825 825 830 830 831 834 836 840 842 843 846 846 847 848 848 849 848 848 849 848 848 847 847 847 846 845 844 842 841 840 839 839 837 836 835 833 831 830 828 827 824 823 821 820 819 818 818 819 818 819
883 882 876 866 860 856 861 879 886 879 878 874 866 871 872 870 868 857 858 878 893 894 894 902 878 817 794 807 804 803 807 807 817 820 816 820 823 824 827 828 832 835 836 839 841 842 844 844 846 846 846 848 847 847 848 847 847 846 846 845 844 843 842 841 840 839 838 838 836 835 834 832 831 829 828 826 824 823 821 820 819 819 819 819 819 819
884 879 872 861 854 860 873 885 888 884 880 873 871 879 877 869 865 863 868 875 880 880 882 897 876 812 794 817 818 815 820 819 822 822 817 819 820 822 826 829 833 835 836 839 839 841 843 842 844 845 845 847 846 846 846 845 846 845 844 844 842 842 841 840 840 839 837 837 835 834 833 831 830 829 827 826 824 823 822 821 820 820 820 819 819 820
873 869 868 860 849 847 852 859 865 872 875 867 867 878 876 874 880 881 886 890 878 861 859 866 846 801 799 824 824 822 824 818 820 823 818 818 819 821 827 830 832 834 835 838 839 840 841 841 843 844 844 845 845 845 845 844 844 844 842 842 841 841 841 839 839 838 836 836 834 833 832 830 829 828 826 825 824 823 822 821 821 821 820 820 819 819
872 871 867 857 850 845 836 831 835 847 863 867 867 876 874 875 877 868 871 881 868 859 862 850 819 793 799 815 815 817 821 815 816 820 818 819 818 819 826 828 830 833 833 836 837 838 840 841 842 842 842 843 843 843 843 843 843 842 841 840 839 840 840 839 838 837 836 835 833 832 831 830 828 827 826 825 824 823 822 822 821 820 820 819 818 818
880 881 873 858 851 845 831 831 846 853 856 855 857 865 870 874 875 868 869 866 855 861 860 830 809 804 800 801 804 808 811 809 810 811 813 816 817 819 824 826 828 831 831 833 836 836 838 838 839 840 840 840 841 841 841 841 841 840 839 838 838 839 838 838 837 836 834 833 832 831 830 829 828 826 825 824 823 823 822 821 821 820 819 818 817 817
880 875 874 868 857 849 842 846 861 866 858 851 851 855 860 869 876 873 862 845 842 854 836 805 811 820 802 792 797 800 803 805 805 806 807 810 813 817 821 824 826 828 830 833 833 833 835 836 836 837 837 838 839 839 840 839 839 838 837 836 837 837 837 836 835 834 833 832 831 830 829 828 827 826 825 824 823 822 821 821 820 819 817 817 816 815
879 869 876 880 864 858 863 863 864 867 862 857 855 852 854 865 872 864 849 839 842 840 812 792 807 814 798 790 790 792 799 801 800 802 805 807 811 815 819 822 824 826 828 830 830 831 832 832 834 835 835 837 837 837 838 837 836 836 835 835 835 836 835 834 833 832 831 831 830 829 828 827 826 825 824 823 822 821 821 820 819 817 816 815 814 814
878 868 883 892 873 861 866 866 867 869 864 857 856 855 854 859 862 855 843 838 840 831 811 805 813 808 794 788 786 788 795 800 800 802 805 806 808 812 816 818 820 822 825 825 827 828 828 830 832 832 833 834 834 835 835 834 834 833 833 833 833 833 833 832 831 831 830 829 829 828 827 826 825 824 823 822 821 820 820 818 817 816 815 814 813 812
877 870 885 892 872 855 860 865 867 870 868 859 852 849 851 853 855 854 847 842 842 834 820 819 825 814 793 785 789 792 793 797 799 799 802 804 806 809 812 814 816 818 820 822 823 825 826 828 829 830 831 832 832 833 832 831 832 831 831 832 832 831 831 830 829 829 828 828 827 826 825 824 823 823 821 821 820 819 818 817 816 815 813 813 812 811
881 877 882 885 865 848 860 869 861 860 863 852 834 826 831 839 843 841 837 835 834 827 822 829 831 811 787 783 790 791 791 796 797 795 798 802 804 807 807 808 811 813 815 818 820 822 824 825 826 827 828 829 829 830 830 829 829 829 829 830 830 830 829 828 828 827 826 826 825 824 823 822 821 821 820 819 818 817 816 815 814 813 812 811 810 809
889 877 873 881 862 844 865 876 860 855 846 817 801 798 796 807 820 825 825 825 823 821 822 821 808 788 779 785 787 785 788 793 792 791 794 797 800 804 803 804 807 809 812 815 816 819 820 821 823 824 825 826 827 827 827 827 827 827 828 828 828 828 827 826 826 825 824 824 823 822 821 820 819 819 818 817 816 815 815 813 812 811 810 809 808 807
897 879 877 885 862 843 864 871 855 849 826 790 788 797 791 791 802 807 808 808 809 812 808 799 788 781 782 785 782 781 784 787 787 787 789 792 795 798 800 801 804 806 809 812 813 815 817 818 820 821 822 824 824 824 825 824 824 825 826 826 825 825 824 824 823 822 822 821 820 820 819 818 818 817 816 815 814 813 812 811 810 809 807 807 806 805
890 882 883 890 874 857 865 865 840 816 795 785 795 802 797 796 800 800 798 797 801 804 800 793 787 781 780 781 782 783 783 785 787 787 788 791 792 793 796 798 801 805 807 809 811 812 814 815 817 819 820 821 821 822 822 822 822 823 823 823 823 822 822 821 820 820 820 819 818 818 817 816 815 814 814 813 812 811 810 808 807 806 805 804 803 802
879 881 879 884 882 864 857 854 825 791 780 785 789 792 798 803 805 803 795 786 789 795 796 793 785 778 779 782 782 784 786 789 791 788 788 790 790 791 793 794 798 801 803 805 807 808 810 812 814 816 817 818 819 819 819 820 820 820 821 821 820 820 819 819 818 818 817 817 816 815 814 814 813 812 811 810 809 808 807 805 804 803 802 801 800 800
873 875 871 874 875 865 858 854 834 808 792 780 776 788 798 796 796 797 788 776 774 781 786 786 781 779 781 780 780 787 792 792 788 782 782 786 788 789 791 792 795 798 800 802 804 805 808 810 812 814 815 815 816 816 817 817 817 818 818 818 817 817 817 816 816 815 815 814 813 812 812 811 810 809 808 807 806 805 804 803 801 800 800 798 797 796
873 870 866 862 864 870 871 862 845 819 786 768 779 795 797 793 794 796 790 778 767 766 773 776 775 776 775 774 782 791 791 786 778 773 776 784 787 788 790 792 794 796 798 800 802 804 807 808 810 812 812 813 813 813 814 815 815 816 815 815 815 815 814 814 813 813 812 811 811 810 809 808 807 806 805 804 803 802 801 800 798 798 797 796 794 793
876 872 869 865 865 874 873 859 848 821 781 770 787 795 796 799 797 793 790 776 760 760 768 770 768 768 767 771 782 787 785 779 770 767 774 782 785 787 790 792 794 795 797 799 800 803 805 806 808 809 810 810 811 811 812 812 813 813 813 813 813 812 811 811 810 810 809 808 808 807 806 805 804 803 802 801 800 799 797 796 795 794 794 793 791 790
877 872 874 873 866 869 869 860 850 824 790 782 790 791 798 802 795 795 794 772 755 761 769 768 764 762 764 772 781 782 777 770 765 766 774 780 783 786 789 790 792 794 796 798 800 801 803 805 806 806 807 808 808 809 810 810 810 810 810 810 810 809 808 808 807 807 806 805 805 804 803 803 801 800 799 798 796 795 794 793 792 791 790 789 788 787
881 877 875 874 867 870 871 861 846 817 788 784 790 790 797 799 795 795 784 761 752 760 767 768 763 759 764 772 776 773 767 765 767 771 777 781 783 786 788 789 791 793 794 796 798 800 801 802 803 804 804 805 806 806 807 807 808 807 807 807 807 806 806 805 805 804 803 802 802 801 800 800 798 797 796 795 794 792 791 790 789 788 787 786 785 783
867 873 875 876 870 867 866 862 851 819 784 779 789 793 796 793 785 777 765 757 758 759 763 769 765 760 767 770 768 766 764 766 772 776 778 781 782 784 787 789 790 792 794 795 797 798 799 800 801 802 802 802 803 804 804 805 805 804 805 804 803 803 803 802 802 801 800 800 799 798 797 797 796 795 794 792 791 789 788 787 787 785 784 783 781 780
834 841 854 867 861 856 866 870 850 807 777 777 786 791 794 783 765 757 757 761 764 760 762 767 765 764 767 766 765 766 765 768 774 775 777 780 780 783 786 786 788 790 791 793 795 795 797 798 799 799 799 800 801 801 801 802 801 802 802 801 800 800 800 799 799 798 797 797 796 795 795 794 793 792 791 789 788 786 785 784 783 782 781 780 778 777
819 812 817 833 834 835 845 841 810 778 773 780 773 768 775 770 760 759 761 759 762 763 763 762 761 763 765 763 763 765 765 768 772 773 776 779 779 782 784 784 786 788 788 791 792 793 795 795 796 797 797 798 798 798 799 799 798 798 798 797 798 798 797 796 796 795 794 794 793 793 792 791 790 789 787 786 785 783 782 781 780 778 777 776 775 773
801 795 791 798 805 804 798 788 776 771 778 781 770 761 765 765 763 766 765 760 761 763 762 760 759 759 762 763 762 763 764 766 768 770 773 775 776 779 781 782 784 785 786 789 790 790 792 792 793 794 794 795 796 796 796 796 795 795 795 794 795 795 793 793 793 792 791 791 790 789 789 787 787 785 784 783 781 780 779 777 776 775 774 773 772 770
792 797 795 792 793 789 775 767 770 771 770 772 772 768 766 765 763 765 764 761 760 758 758 759 756 755 760 762 762 762 763 763 766 769 771 773 775 778 779 781 783 783 785 786 787 788 790 790 791 791 791 792 793 793 793 793 792 792 791 792 792 792 791 790 790 789 788 788 787 787 786 784 783 782 781 780 778 776 775 774 773 772 770 769 768 766
794 801 801 794 789 787 775 766 768 769 766 768 769 764 763 763 761 761 761 758 756 755 756 757 755 755 758 759 759 760 761 762 765 767 769 772 774 776 777 779 781 781 782 783 785 786 787 787 788 788 788 789 790 790 790 790 789 789 789 789 789 789 788 787 786 786 785 784 784 784 782 781 780 778 777 776 774 773 771 770 769 768 766 765 764 762
796 801 800 793 790 787 778 769 770 769 766 767 765 761 760 759 755 757 758 756 754 755 755 755 755 755 756 757 758 758 759 762 764 765 768 771 772 774 776 777 777 779 780 781 783 784 784 785 785 785 785 786 786 787 788 787 787 787 787 786 786 786 785 784 783 783 782 782 781 780 779 778 776 775 773 772 770 769 768 766 766 764 763 762 761 759
800 800 795 791 789 786 778 774 772 767 761 760 760 759 757 756 755 755 754 754 754 754 753 754 754 754 754 755 756 757 759 761 762 764 767 769 770 772 773 774 776 777 778 779 780 781 781 782 782 782 782 782 783 785 784 784 784 784 784 784 784 783 782 781 781 780 779 779 778 777 776 774 773 771 770 768 766 765 764 763 762 760 758 757 757 755
803 798 792 794 794 786 779 775 773 770 764 758 755 756 756 756 756 754 752 753 753 751 751 752 753 754 755 755 755 757 758 759 761 763 765 766 768 770 770 772 774 774 775 777 778 778 779 779 779 780 780 780 781 782 781 781 781 781 781 781 780 780 779 778 778 777 776 775 775 773 772 771 769 768 766 764 762 761 759 758 758 757 754 753 752 752
804 800 798 799 796 786 778 775 775 775 770 759 754 755 756 756 756 753 751 750 749 748 750 750 750 752 754 754 755 756 756 758 760 762 764 765 766 767 768 770 771 772 774 775 775 776 777 777 777 778 777 777 778 778 778 778 778 778 778 778 777 777 776 775 775 774 772 772 771 770 769 768 766 764 763 761 759 758 755 753 752 752 751 750 748 747
Wind_Speed
3 6 5 1 2 4 4 3 2 1 2 4 4 4 2 1 1 3 2 2 1 0 2 1 3 6 8 8 6 5 3 4 7 6 6 6 5 5 5 5 6 5 10 14 14 13 14 14 16 17 18 19 20 21 22 23 23 24 23 24 25 24 24 25 25 25 25 25 25 25 25 27 26 26 26 26 27 27 27 26 26 27 26 25 25 24
5 7 2 3 5 4 3 2 3 3 4 4 5 4 3 1 2 3 2 3 2 0 2 1 3 8 9 8 5 5 5 8 10 8 8 8 7 5 5 7 6 5 8 11 14 16 16 17 17 18 19 21 22 23 23 24 24 24 24 26 27 25 26 27 27 27 28 28 27 26 27 27 26 26 26 27 27 28 28 28 29 29 27 27 26 25
6 4 2 4 2 1 2 2 3 4 5 4 3 4 2 0 2 3 2 3 3 0 2 2 4 9 10 7 6 7 9 9 8 8 8 8 8 6 6 6 6 6 6 8 12 16 17 18 18 19 21 22 23 24 23 23 24 24 25 26 26 26 26 27 28 28 29 29 28 28 28 27 27 27 27 28 29 29 30 31 31 31 30 29 29 28
4 0 3 1 3 3 4 3 2 4 5 3 3 3 1 2 1 1 2 4 3 0 2 3 4 7 7 4 5 7 7 6 4 6 7 6 8 8 6 5 6 7 8 8 10 14 17 17 17 18 20 21 22 24 24 24 24 24 25 25 25 26 27 28 29 30 30 30 30 30 30 30 30 31 31 31 33 34 34 35 35 35 34 32 32 31
3 1 0 3 3 3 3 4 4 4 3 2 2 4 2 2 1 3 2 3 2 1 1 3 3 4 3 3 5 3 2 5 3 5 8 7 8 6 5 6 7 8 9 9 10 11 13 14 15 16 16 17 20 23 23 23 24 25 25 26 26 27 28 29 30 31 32 32 33 33 33 33 33 34 34 35 39 40 38 38 39 38 36 35 34 33
3 1 1 4 3 3 3 3 3 3 1 2 1 3 3 2 1 3 3 3 3 2 2 4 4 4 4 4 6 2 2 5 2 4 10 9 6 5 6 9 9 8 7 8 11 13 13 14 15 15 15 17 20 22 22 22 23 24 25 26 27 28 29 30 31 32 32 32 33 33 33 34 33 34 36 38 41 40 37 38 38 36 35 34 34 34
2 2 3 5 5 5 5 3 1 3 4 2 1 2 3 3 1 1 2 2 2 2 3 4 2 4 6 6 6 1 4 7 4 5 10 7 6 6 8 10 8 7 6 6 10 13 14 14 14 17 17 17 19 20 19 20 21 21 23 23 24 26 27 29 30 31 30 31 32 32 33 34 33 34 38 40 37 34 32 33 33 32 32 31 31 32
0 3 6 5 5 5 5 3 0 4 5 1 2 1 1 1 2 2 2 2 1 2 3 4 2 2 5 6 3 3 4 7 6 7 8 6 7 8 9 9 7 6 5 5 6 8 12 13 13 16 16 14 15 16 16 17 18 18 19 20 20 22 24 25 26 28 29 29 30 31 32 34 34 35 40 41 37 34 33 33 33 33 33 32 31 32
0 2 3 3 5 4 1 0 3 4 3 1 2 2 1 2 3 3 4 3 1 2 3 4 2 1 6 5 3 4 3 6 7 8 8 6 6 7 8 7 5 4 4 5 5 7 10 11 11 12 12 12 12 13 13 14 15 15 16 17 17 19 20 21 22 24 25 27 28 29 30 33 35 36 38 39 37 36 35 35 37 36 36 35 34 33
0 1 2 3 4 1 2 2 3 3 2 1 3 4 4 4 3 3 4 3 2 3 3 4 2 0 5 6 3 2 1 5 7 7 6 5 4 4 4 4 3 3 3 4 7 9 9 8 8 8 8 10 11 12 13 13 14 14 14 15 15 16 18 19 20 21 22 23 25 26 28 31 33 34 36 36 35 35 34 35 36 36 36 35 34 33
1 1 2 2 2 2 3 0 1 2 3 4 3 3 4 4 4 3 2 3 4 3 5 4 1 1 3 6 3 2 3 5 4 4 5 5 3 1 1 2 2 2 2 4 6 8 6 4 4 6 9 12 13 14 14 14 14 14 14 14 14 15 16 17 18 19 19 20 21 23 25 27 30 32 32 33 34 34 33 33 34 35 35 34 33 32
3 1 1 1 0 2 3 2 2 2 3 4 2 3 2 3 4 3 4 3 3 3 5 3 2 1 3 6 4 4 5 5 5 5 6 6 4 3 2 2 3 2 3 3 3 4 3 6 9 11 14 15 15 15 15 15 14 14 14 14 14 15 16 15 16 16 17 17 18 20 22 24 26 28 30 31 32 32 32 32 33 32 32 31 31 31
2 1 2 1 1 2 3 1 2 2 3 4 2 3 3 3 4 2 3 2 2 4 3 2 3 2 6 8 9 9 9 7 7 6 6 6 4 3 2 3 2 2 2 2 2 2 4 8 11 13 15 16 16 16 16 16 15 16 16 15 15 15 15 15 15 15 15 16 17 18 20 21 23 25 27 28 30 30 30 31 31 30 29 29 29 29
2 4 2 1 1 0 3 3 1 1 2 3 3 3 3 2 3 3 3 2 4 4 2 2 2 3 5 6 9 12 10 7 7 8 7 6 4 3 4 4 3 2 2 2 2 1 5 8 11 12 14 15 16 16 16 16 17 17 17 17 16 16 16 15 15 15 16 16 16 17 18 19 21 23 24 26 27 28 28 29 29 29 29 29 29 28
1 4 2 2 1 0 2 2 3 3 3 2 3 3 3 4 2 4 4 3 4 4 3 3 2 3 3 4 6 8 7 5 5 5 4 4 3 3 4 3 2 2 2 2 1 3 7 10 11 13 15 16 16 16 16 17 17 17 18 18 17 17 17 18 18 18 18 17 17 17 17 18 20 22 24 25 26 26 27 28 28 29 29 29 28 28
1 4 4 2 1 2 1 1 3 4 2 1 2 3 2 4 4 2 3 5 2 2 3 2 3 5 4 6 6 4 4 5 3 1 3 3 3 2 2 2 1 2 2 1 2 5 9 13 14 15 16 16 15 15 15 16 16 16 17 17 17 18 18 19 19 19 19 18 18 17 17 17 19 20 22 24 25 25 26 27 27 28 28 27 28 28
1 4 4 3 1 1 0 2 1 2 1 1 1 2 3 3 6 5 1 0 3 0 3 1 4 6 4 6 7 4 1 1 3 2 2 4 2 2 2 1 2 3 2 2 4 6 10 14 15 16 16 15 14 14 14 14 14 15 16 16 17 17 18 18 19 19 19 19 18 18 17 17 18 19 20 22 23 23 24 25 26 26 26 26 27 26
2 3 4 1 0 2 1 0 2 2 2 2 1 3 2 2 4 4 0 3 3 2 4 1 4 6 3 4 6 6 2 3 3 3 1 2 2 3 3 3 4 3 2 3 6 9 11 14 14 15 14 13 12 12 12 12 12 14 14 15 16 16 17 17 18 18 19 20 20 20 19 19 18 17 18 19 20 21 22 23 23 24 25 25 24 23
3 2 6 1 2 2 2 1 2 2 1 1 2 2 2 2 1 1 1 1 1 3 4 3 5 6 5 5 4 4 6 7 5 2 2 3 4 4 5 5 4 2 4 5 6 7 10 12 13 13 12 11 10 10 10 10 12 14 15 15 15 14 15 16 17 18 19 20 21 21 21 20 19 19 18 18 18 18 19 20 21 22 22 22 20 19
2 1 4 3 2 1 2 1 3 1 2 3 1 1 2 2 4 1 2 2 2 2 3 4 4 5 7 6 6 9 9 8 7 5 5 7 7 6 5 4 3 3 5 6 5 5 8 11 11 11 10 9 9 9 10 10 12 14 15 14 13 13 14 15 17 18 19 19 20 20 21 21 21 20 20 19 18 17 17 17 18 18 17 16 16 15
2 2 3 4 3 1 1 3 5 5 3 2 1 1 1 1 2 0 1 2 3 2 3 2 4 8 7 5 8 10 9 9 9 7 7 8 6 5 5 4 3 4 5 5 5 6 8 10 10 9 8 8 8 8 9 10 12 13 14 12 11 12 14 15 16 17 18 17 17 18 19 20 21 21 21 20 19 18 18 18 16 15 13 13 12 12
1 3 3 3 2 3 5 4 4 5 5 5 4 4 4 3 3 1 3 2 2 3 4 3 5 12 6 6 9 10 9 9 8 7 7 6 6 5 5 4 4 5 5 5 5 7 9 9 9 8 7 6 7 8 8 9 11 12 12 10 9 10 13 14 15 15 15 14 15 16 17 18 19 20 21 21 20 19 19 18 17 15 13 11 9 9
2 3 1 4 5 5 4 3 1 3 4 4 2 3 4 4 5 4 4 4 1 2 2 4 3 11 4 6 7 7 7 7 6 7 7 5 5 5 3 2 4 5 5 5 6 8 9 9 9 7 6 5 5 6 7 8 9 10 10 9 8 9 12 13 14 13 12 12 13 15 15 16 16 17 18 19 20 20 19 18 16 14 11 9 7 6
2 2 0 5 5 3 3 3 2 1 3 2 2 2 4 3 4 5 5 3 2 3 3 3 4 10 4 1 3 2 2 2 4 6 6 4 4 3 3 4 5 5 5 6 6 8 9 9 8 7 5 4 3 3 5 6 7 8 9 9 8 8 10 12 12 11 11 11 12 13 14 15 15 15 16 17 17 17 16 15 14 12 10 7 6 6
1 1 1 3 6 6 6 5 5 4 0 3 3 2 3 4 6 4 2 3 1 6 8 4 8 10 4 3 1 1 1 2 5 6 5 4 4 3 4 5 5 5 5 6 6 7 8 8 8 8 6 5 4 2 3 5 6 7 9 9 7 6 9 10 11 10 9 10 11 12 14 15 15 15 14 14 14 14 13 13 12 10 9 7 7 7
2 2 3 1 3 5 6 5 4 2 2 2 2 3 4 5 8 4 2 3 4 6 8 7 11 9 3 2 1 2 3 4 6 7 5 5 5 5 5 5 5 5 6 7 7 6 7 8 9 9 7 5 3 1 2 4 5 6 8 7 5 4 7 9 9 8 8 9 11 12 13 14 15 14 14 13 12 12 11 11 10 9 9 9 9 9
2 1 3 6 7 8 9 7 2 2 1 4 4 5 6 6 7 5 4 4 6 3 4 12 14 11 13 11 7 5 5 7 8 7 6 5 5 5 6 6 5 5 6 6 6 6 6 7 9 9 6 4 4 2 1 3 3 5 6 5 3 4 5 6 7 7 7 9 10 12 13 13 13 13 12 11 11 10 9 9 9 8 8 8 8 9
3 3 5 7 12 13 11 8 2 1 5 9 9 8 8 8 8 8 8 10 5 4 10 16 9 9 19 19 12 9 7 7 8 8 7 6 6 5 5 6 7 6 5 5 5 6 5 5 7 9 7 6 6 4 2 2 3 4 4 3 3 4 4 5 7 7 7 8 10 11 11 12 11 11 10 10 9 9 9 8 8 8 7 7 8 8
4 4 4 4 10 12 9 9 7 5 9 10 11 12 11 9 11 14 19 15 7 7 19 15 5 9 17 18 14 10 7 6 8 8 6 5 5 6 6 8 8 7 6 6 6 6 5 5 7 10 9 8 7 5 3 2 3 5 4 2 3 4 4 6 7 6 6 7 8 9 10 10 10 9 9 9 9 8 8 8 8 8 8 8 8 8
4 3 2 1 7 12 9 9 8 6 8 9 11 13 11 11 15 18 20 17 13 17 22 18 14 16 18 19 18 13 5 5 6 5 4 5 6 8 8 9 9 8 8 7 7 6 5 6 10 12 10 9 8 5 3 2 3 4 3 2 2 4 5 7 6 5 6 7 7 8 8 8 8 9 8 9 8 8 8 8 8 8 8 8 8 8
2 3 1 3 5 10 6 3 3 4 7 11 14 15 13 13 15 16 17 15 13 18 22 19 17 19 19 17 14 12 8 5 6 6 6 7 7 8 9 9 9 9 8 7 6 6 5 7 11 12 11 10 8 5 3 3 3 3 3 2 3 4 6 6 6 6 6 7 7 7 7 7 8 8 8 9 9 9 9 9 10 10 10 10 10 10
2 3 1 5 3 7 3 6 6 6 7 13 18 19 16 14 12 12 13 12 12 16 16 11 9 14 16 10 5 7 7 6 7 9 7 6 7 9 9 10 9 9 9 8 7 6 5 6 10 13 12 11 9 6 5 4 3 2 3 3 4 6 6 7 7 7 7 7 7 6 6 7 7 8 8 9 9 10 10 11 11 11 12 12 12 12
4 2 0 2 2 6 3 5 6 7 9 12 13 12 11 11 11 10 8 10 14 13 8 7 11 13 8 2 3 6 5 6 8 8 7 7 8 9 10 10 9 9 9 8 7 7 7 8 12 14 13 11 9 8 6 5 4 4 4 5 7 8 8 8 8 7 7 6 6 6 6 7 7 8 9 10 10 11 12 13 13 13 14 14 14 14
3 4 2 2 2 5 6 6 6 6 8 8 3 5 7 8 11 11 9 10 13 12 8 9 11 11 6 4 7 7 6 7 7 6 6 6 6 8 9 9 9 8 8 8 7 7 9 12 14 13 12 11 10 8 7 6 5 5 6 6 8 9 9 8 7 7 6 6 6 6 6 7 8 9 10 10 11 13 13 14 14 14 15 15 16 16
5 4 2 2 2 4 5 6 6 6 7 6 6 6 7 7 9 10 9 11 12 14 13 13 14 14 11 8 7 7 7 6 4 5 5 5 6 7 8 8 8 8 8 7 6 7 11 15 15 13 12 11 9 8 8 7 7 6 6 7 8 9 8 7 7 7 7 6 6 7 7 8 9 10 11 12 13 14 15 15 15 15 15 16 16 17
7 5 2 2 2 3 2 3 2 9 11 10 11 6 1 4 4 3 7 12 13 13 14 16 18 16 12 10 8 5 4 2 2 5 6 7 7 8 7 7 8 9 9 8 9 11 15 17 15 13 12 11 9 9 9 8 8 7 7 7 8 8 8 7 7 7 8 8 7 8 8 9 10 12 13 13 14 15 16 16 16 16 16 17 18 18
7 5 2 2 3 2 2 3 4 10 15 11 5 1 2 3 5 5 3 8 10 10 11 14 16 13 10 10 7 2 3 2 3 6 7 8 9 8 7 7 8 9 10 11 12 14 15 16 14 12 11 10 10 10 10 10 9 8 8 8 8 9 8 8 8 8 8 8 8 8 9 10 12 13 14 15 15 16 16 17 17 17 17 18 19 19
4 3 4 4 2 2 1 4 4 7 10 6 3 4 4 4 7 6 2 7 7 9 11 11 11 11 10 9 4 4 3 1 5 6 4 6 6 6 5 5 9 12 12 13 14 14 14 14 12 10 11 10 10 11 11 11 10 9 9 9 9 9 10 9 10 9 9 9 9 10 10 11 12 14 14 15 16 16 17 17 18 18 17 18 20 21
2 1 4 3 3 2 3 2 3 5 8 4 4 5 4 4 5 3 5 9 6 7 9 10 10 11 10 7 5 6 2 3 7 7 4 6 7 7 6 5 8 12 14 15 15 15 15 14 11 10 11 10 11 12 12 11 11 10 11 10 10 10 11 11 10 10 10 10 10 11 12 12 13 14 15 16 17 17 17 18 18 19 19 19 20 21
3 2 2 4 6 4 4 3 4 7 9 4 5 5 3 3 3 4 6 9 6 4 5 9 9 10 8 5 5 6 5 7 7 4 4 7 7 8 8 8 11 14 15 15 15 15 14 13 12 12 12 12 12 13 12 11 11 11 12 11 10 12 12 11 10 10 10 11 11 12 12 12 13 14 15 16 17 18 18 19 19 20 20 21 21 22
1 1 2 4 5 5 6 5 5 6 8 7 6 6 5 2 3 2 6 8 5 4 5 7 8 9 6 6 5 6 8 6 2 2 5 7 7 6 9 12 14 15 16 17 17 14 13 13 12 12 12 12 12 12 12 12 12 12 12 11 12 12 11 10 10 11 11 12 12 12 12 12 13 14 14 15 17 18 19 19 19 20 20 21 22 23
2 1 2 2 3 4 5 4 5 8 8 6 5 5 5 2 2 5 6 4 3 5 6 6 8 7 6 7 8 8 6 2 5 5 6 8 7 6 8 12 13 13 14 16 15 14 14 13 12 12 12 12 12 12 11 12 13 13 12 12 12 11 9 10 11 11 12 12 11 12 12 12 13 14 14 15 16 18 19 19 19 19 20 20 22 23
6 4 2 4 4 3 2 2 4 8 6 6 8 4 2 5 5 5 3 2 3 5 5 6 8 7 6 8 8 8 5 2 4 5 6 7 6 5 9 14 15 15 16 16 15 15 15 14 14 13 12 12 12 12 11 12 13 13 13 14 12 9 9 11 11 11 12 12 12 13 13 13 14 14 15 16 16 18 20 20 19 20 20 20 21 22
6 6 3 4 4 5 4 6 5 4 3 7 7 3 6 8 4 2 2 3 4 4 4 5 7 7 8 8 8 7 6 4 5 6 5 6 5 5 8 13 15 15 17 17 17 16 16 15 14 13 12 12 13 13 12 13 14 14 15 14 10 9 11 12 11 12 13 12 13 14 14 14 15 15 16 16 17 18 19 19 19 20 20 20 20 21
8 7 4 5 5 5 7 8 5 2 3 6 6 5 6 7 5 2 4 5 5 4 5 4 6 7 7 8 7 6 6 5 5 6 6 6 6 6 8 13 15 16 17 17 17 16 16 16 14 12 13 13 13 12 13 13 14 16 16 14 10 11 12 12 12 13 13 14 15 15 16 16 17 17 17 17 17 18 18 18 19 20 20 21 21 21
5 4 2 2 3 5 8 8 6 6 5 5 8 8 8 9 8 5 6 7 7 6 5 5 6 7 6 7 6 5 6 6 5 6 6 6 6 6 9 13 15 16 16 17 16 16 15 14 13 13 14 13 13 12 12 13 15 17 16 13 11 12 13 12 13 14 15 15 16 16 17 19 20 20 20 19 18 18 18 18 18 20 21 22 22 23
2 1 1 3 4 6 7 5 4 7 8 6 8 10 9 10 9 7 6 8 8 7 6 6 6 5 5 6 7 7 6 5 6 5 5 5 6 6 7 10 14 16 16 17 17 16 15 15 14 15 15 15 14 12 12 13 15 16 16 14 13 13 13 14 14 15 16 17 17 18 18 20 21 22 22 21 20 20 19 19 19 19 21 22 23 23
2 2 1 5 6 7 9 10 10 12 11 9 9 10 9 9 9 7 7 8 8 6 5 5 5 5 5 6 7 7 6 5 6 6 5 5 6 5 7 11 14 16 16 17 16 15 15 16 16 16 17 17 15 12 12 13 14 14 15 15 14 13 15 15 15 16 17 18 18 19 20 21 22 22 23 23 22 21 21 21 20 21 22 23 23 24
2 1 3 3 5 8 9 9 11 13 12 9 8 8 7 7 8 7 6 6 6 6 5 4 4 4 5 5 5 6 5 6 6 6 6 6 5 5 8 12 14 15 17 17 16 16 16 17 17 17 18 18 15 12 12 13 13 13 14 14 14 14 16 17 16 17 18 18 19 20 21 21 22 23 23 24 24 24 23 23 23 23 25 25 24 24
1 4 5 4 6 9 9 9 10 11 11 11 10 8 7 6 6 7 6 5 6 7 6 5 3 2 3 4 5 6 6 6 5 6 6 6 6 8 11 13 13 14 16 16 15 15 16 17 17 18 19 18 16 14 14 14 14 13 13 13 14 15 16 17 17 18 19 19 20 21 21 22 24 24 24 25 26 26 26 26 25 24 25 25 24 24
1 5 6 7 9 12 13 14 12 8 10 14 14 11 6 4 4 7 8 8 8 8 6 7 6 4 3 4 5 6 6 5 6 7 6 5 7 10 12 13 13 14 15 15 15 15 16 17 17 18 19 19 16 15 15 16 16 14 13 13 14 15 17 17 18 20 20 20 21 22 22 23 25 25 26 26 26 26 27 29 29 28 26 26 24 23
Wind_Direction
54 67 42 39 251 279 275 249 187 146 115 119 100 86 100 151 243 280 287 324 12 42 299 246 269 279 274 270 241 206 196 230 247 248 248 246 240 240 239 245 243 236 250 260 266 262 253 244 240 241 245 248 250 252 252 253 254 255 255 256 255 255 255 255 255 256 256 256 257 258 259 262 264 266 267 269 270 271 272 272 271 272 273 274 275 277
58 74 39 259 241 256 278 231 162 105 77 84 98 93 70 133 240 253 246 321 355 263 276 318 304 281 264 261 240 179 192 229 230 226 237 239 239 244 239 248 248 249 260 264 265 262 258 255 250 245 244 245 248 250 251 253 255 256 256 256 256 256 254 254 255 255 256 256 257 259 262 264 267 267 268 269 271 272 271 270 270 271 271 272 273 275
52 75 268 268 217 170 35 87 133 105 85 77 87 96 82 239 276 282 283 334 356 256 269 329 314 280 268 259 235 196 204 228 224 217 230 231 234 240 233 243 252 260 269 265 264 265 263 262 259 253 248 246 250 254 255 256 259 260 259 260 261 261 259 259 260 259 261 262 262 264 265 267 269 269 269 270 271 271 270 270 271 272 272 273 274 276
78 68 276 246 145 113 56 55 89 81 72 75 93 104 202 279 356 277 302 334 336 35 273 281 283 275 283 287 251 218 215 246 246 228 239 231 232 240 239 242 245 250 259 264 267 266 265 264 260 256 252 251 253 256 257 259 262 265 266 268 268 269 269 268 267 266 267 268 267 267 267 268 270 270 271 271 272 272 270 270 271 273 273 274 275 276
91 246 33 92 125 131 75 35 46 78 46 7 119 132 174 252 233 223 282 333 327 353 307 299 314 287 305 328 276 257 240 264 257 242 251 241 235 247 262 254 241 242 250 257 263 263 261 260 259 260 262 261 260 261 264 266 268 271 274 276 275 276 275 274 273 272 270 269 268 268 268 268 269 270 271 271 273 274 272 273 275 276 276 275 275 275
61 321 100 83 71 79 95 38 37 119 115 335 226 157 153 175 241 280 308 1 25 344 330 19 5 296 309 295 261 296 339 275 257 243 251 251 240 233 249 251 243 242 242 245 257 265 267 268 272 275 275 273 273 275 277 278 278 279 280 280 280 279 279 279 278 275 272 270 269 268 267 267 267 269 270 271 275 277 276 278 281 281 280 278 276 275
50 9 66 94 87 71 80 63 20 147 111 43 250 134 110 128 162 274 299 22 57 275 312 44 100 265 305 289 262 329 314 285 284 251 251 252 240 224 235 245 241 240 238 239 253 263 269 276 281 283 282 281 285 290 292 292 291 290 290 289 287 287 286 286 284 281 277 274 273 270 268 268 267 267 271 274 277 280 281 283 284 285 284 282 279 276
200 7 31 56 73 71 71 57 178 139 100 35 247 144 96 145 186 186 119 93 179 255 321 19 98 241 287 280 287 2 314 300 300 269 260 248 231 226 232 240 240 238 235 239 252 260 266 271 275 283 292 296 301 308 308 306 307 306 305 304 301 298 298 297 293 289 285 282 279 275 272 271 270 270 274 277 279 281 283 284 284 285 285 283 281 278
317 22 22 42 61 70 90 189 185 143 78 272 205 129 144 145 152 144 104 102 14 358 314 324 38 256 267 276 334 8 324 303 294 270 263 250 230 224 231 242 250 251 244 241 250 259 264 271 279 290 306 318 324 328 327 327 328 325 322 319 315 313 313 312 306 299 294 291 286 281 277 276 277 277 278 281 282 282 285 286 286 287 286 285 283 280
202 174 174 116 86 128 229 241 177 141 60 177 147 86 70 71 72 82 92 103 44 19 262 276 14 18 270 281 315 23 277 262 266 264 260 256 249 237 241 261 283 290 281 254 249 255 267 286 298 307 327 344 353 356 356 357 352 347 344 337 332 331 330 327 321 312 305 301 294 288 284 282 283 284 284 284 284 285 287 288 289 290 289 288 286 283
284 258 199 132 106 181 186 120 115 133 115 127 120 72 57 31 27 43 53 83 59 329 255 253 336 87 287 284 244 199 218 207 205 239 253 252 249 225 240 264 263 267 266 255 250 256 278 320 353 5 8 13 18 20 20 18 13 9 6 359 354 351 349 343 335 326 319 312 303 297 294 290 289 291 288 286 286 288 288 288 289 290 290 290 288 286
343 8 246 245 241 129 122 79 55 67 92 101 101 88 69 345 5 19 353 43 79 276 259 262 318 159 235 267 247 234 249 218 183 191 208 217 198 145 158 229 220 225 240 248 255 270 339 25 33 29 26 27 30 31 32 31 29 29 28 23 18 14 9 3 355 346 336 326 316 309 304 298 297 295 291 288 288 289 289 288 289 290 290 290 287 286
346 264 289 328 274 146 134 123 18 11 61 88 92 74 60 346 5 2 322 349 211 244 261 319 337 237 228 252 255 256 259 243 223 212 202 208 194 157 210 245 245 256 265 270 274 304 19 31 29 29 34 40 43 43 42 42 41 41 39 36 34 29 22 16 12 6 358 347 336 326 317 309 305 301 295 292 291 291 290 290 289 289 289 288 286 284
336 296 307 100 262 224 132 141 224 275 91 120 153 109 95 75 31 300 277 301 263 255 274 310 318 274 275 273 243 243 253 237 221 223 223 224 215 208 238 252 269 288 283 267 254 355 38 41 41 47 53 55 56 54 50 46 42 39 36 32 29 25 17 11 7 4 1 356 349 341 331 323 316 308 303 298 295 293 291 290 290 288 287 286 285 282
70 286 254 148 228 30 121 172 171 154 104 124 169 125 129 149 157 253 233 218 254 282 296 298 283 223 252 278 225 224 250 251 230 225 226 237 231 230 252 264 291 298 267 253 185 70 57 60 67 70 69 67 63 57 49 43 36 32 28 23 18 13 6 0 356 353 351 347 343 339 335 332 326 317 311 305 300 297 293 292 291 289 288 287 285 284
120 254 263 312 261 125 119 236 123 103 89 200 161 104 140 177 148 163 195 184 187 317 298 266 248 225 229 272 270 253 249 256 282 259 192 226 248 236 259 270 268 245 232 205 86 73 73 78 80 79 75 71 64 55 47 40 32 26 21 15 11 7 2 359 356 354 353 348 343 340 336 332 327 323 318 312 306 302 298 296 294 291 291 289 287 286
53 281 291 346 343 96 131 233 72 58 150 138 112 189 223 174 117 114 206 57 85 266 272 227 252 279 308 294 301 349 28 236 352 17 184 225 236 180 195 236 239 227 206 101 88 88 88 87 85 82 78 71 63 54 47 40 31 25 19 13 9 7 6 5 5 4 3 0 357 353 347 339 331 325 320 315 310 307 303 300 298 296 294 292 289 286
139 289 295 29 74 289 291 169 11 29 134 114 202 217 208 111 88 98 200 352 42 238 266 243 246 274 296 288 317 359 339 264 311 344 274 243 177 162 192 223 231 218 155 102 97 98 97 94 91 87 80 74 67 57 50 42 31 24 20 16 14 13 14 14 13 13 13 12 11 6 1 355 348 339 330 321 315 310 307 303 302 301 299 295 290 284
124 293 298 314 175 292 9 58 331 343 87 128 198 184 111 137 174 61 142 252 306 266 280 298 280 263 225 228 279 276 247 259 277 274 218 206 180 185 214 220 214 175 116 109 104 101 102 100 98 93 86 79 69 58 49 40 27 22 19 16 18 19 20 18 16 17 18 17 16 13 10 7 2 358 351 342 333 324 317 312 308 306 301 295 289 282
111 103 286 274 222 300 17 149 240 278 28 28 55 37 38 145 174 172 150 175 209 255 282 315 315 261 223 204 210 225 230 237 243 227 205 206 201 201 214 215 194 136 119 122 119 116 113 109 105 99 92 83 67 52 43 32 21 18 16 14 18 19 17 16 15 17 18 17 16 16 15 14 12 9 5 1 357 351 343 335 325 315 305 297 291 285
72 128 246 288 307 274 235 209 198 185 151 86 122 229 328 84 131 239 217 146 145 188 228 292 293 262 238 186 194 217 223 221 220 211 205 210 214 214 217 215 179 138 134 135 130 128 124 120 117 108 96 83 65 47 36 27 18 15 14 15 20 19 16 14 13 14 14 14 14 16 17 18 18 17 14 13 12 9 4 358 350 339 327 315 304 294
134 157 206 281 289 225 236 237 199 185 169 159 177 194 187 145 117 134 282 276 118 174 192 167 278 272 249 164 195 215 217 222 213 189 191 206 214 220 220 206 163 142 146 147 137 135 135 132 128 119 99 79 61 45 34 24 16 12 12 14 16 16 15 12 11 11 9 9 11 12 14 16 17 18 18 18 18 16 13 9 4 359 349 335 318 301
147 120 182 258 245 227 252 281 201 186 155 144 183 192 156 136 130 153 235 253 160 201 180 115 268 275 255 162 199 214 212 224 203 177 183 203 215 218 206 168 146 150 151 144 139 139 142 139 132 123 103 83 66 47 33 19 11 5 3 6 6 8 10 8 6 5 2 3 5 4 6 8 11 14 15 16 15 14 13 11 9 5 358 345 325 299
122 100 224 279 289 306 329 353 9 35 98 128 243 174 146 158 148 156 184 186 180 211 167 113 255 267 282 155 204 214 218 225 196 189 189 198 223 214 175 159 154 156 147 139 142 143 145 142 136 134 127 120 110 60 31 13 4 354 352 355 355 358 3 2 1 357 354 358 360 359 0 2 3 5 8 10 10 8 7 7 5 2 356 345 323 296
216 199 104 331 323 330 343 353 344 336 158 212 241 198 163 124 98 106 147 111 269 223 173 166 257 258 285 350 30 116 188 201 206 215 208 205 219 197 173 173 165 161 154 150 152 151 152 155 155 158 157 151 143 77 25 4 354 343 341 345 347 348 352 355 355 350 350 355 357 356 358 358 357 357 358 360 360 359 358 356 354 350 344 332 315 303
213 205 144 158 273 282 291 295 287 268 223 227 227 200 199 154 136 158 148 123 249 232 161 187 248 262 300 331 138 150 185 205 224 231 226 219 212 188 178 178 172 171 167 162 163 165 167 170 169 166 161 158 159 104 2 348 343 333 333 341 347 333 331 341 347 343 346 353 355 355 354 354 354 353 352 350 347 346 344 341 340 337 332 326 319 313
94 245 207 198 213 230 248 254 213 119 232 259 246 216 204 190 172 142 107 181 211 182 198 230 242 271 285 268 249 233 208 213 235 238 230 223 211 195 184 179 180 178 171 169 169 172 175 174 172 169 165 170 178 193 307 328 327 323 332 348 357 321 309 327 339 337 340 347 349 350 349 349 349 348 347 346 342 337 332 329 329 329 328 326 322 318
94 286 243 214 231 245 259 273 300 33 261 255 253 238 210 195 175 163 201 222 159 116 260 252 220 241 268 268 259 247 224 220 237 237 229 220 208 196 181 176 183 177 170 175 176 178 183 178 173 174 176 183 188 204 263 313 319 324 340 356 342 311 298 316 325 324 330 338 340 343 341 340 341 341 341 341 337 333 329 327 326 324 324 323 319 316
130 259 246 208 251 262 270 278 274 262 259 253 251 249 230 198 183 197 222 225 169 200 255 261 211 225 260 271 268 253 222 215 233 232 221 214 194 181 175 179 187 185 180 185 187 186 187 180 178 181 184 187 191 210 260 303 327 334 342 341 319 305 297 308 311 309 318 326 329 332 330 329 330 331 332 332 330 329 327 326 324 322 320 320 318 315
157 246 232 158 280 277 268 267 261 248 263 268 254 246 237 215 204 214 231 231 217 234 253 264 268 265 267 269 272 276 257 221 234 232 202 195 187 179 183 192 196 194 191 190 190 188 184 181 183 184 185 189 198 218 261 295 326 333 322 305 306 294 289 294 295 295 305 312 315 317 316 316 320 322 324 324 325 326 324 323 321 319 317 316 315 312
194 253 164 106 299 288 288 314 290 237 253 272 268 252 236 227 223 227 237 237 233 245 253 262 271 272 269 265 271 282 275 235 228 232 213 202 193 184 192 205 206 203 199 194 190 184 183 182 182 184 188 195 206 223 248 273 301 307 293 286 274 268 275 282 283 287 294 299 301 302 304 308 311 314 317 318 318 318 317 317 317 315 312 310 307 304
176 258 3 64 327 287 351 17 325 289 271 271 273 264 243 225 220 223 228 222 217 232 249 261 261 259 264 268 261 260 252 226 225 230 220 209 199 191 201 213 213 207 199 193 187 186 185 182 182 188 194 200 210 222 231 241 253 255 257 254 251 262 276 281 280 283 286 289 290 291 296 303 306 308 310 310 311 311 310 310 308 307 306 303 301 298
150 170 98 73 288 275 323 347 316 320 310 280 265 254 236 216 210 218 232 226 214 213 224 230 232 245 259 241 218 240 223 210 229 229 215 213 205 200 210 215 212 207 198 190 190 190 189 189 190 194 199 205 212 217 219 225 230 229 231 240 253 269 281 280 277 280 280 280 282 286 293 298 301 303 304 304 305 304 303 303 302 302 301 299 298 296
136 133 156 171 236 268 294 327 329 316 294 279 251 193 195 195 199 209 226 229 213 201 209 232 244 256 261 214 224 238 217 206 226 229 213 204 197 205 218 216 208 201 191 187 189 189 187 188 191 196 202 207 212 214 214 219 226 227 233 249 264 273 278 276 272 273 274 273 276 282 289 293 296 298 299 299 300 300 300 301 300 299 298 297 296 294
151 142 162 172 193 262 304 0 344 280 243 259 295 265 216 188 186 204 236 245 224 213 224 245 256 256 256 249 239 242 238 226 234 239 221 199 192 201 211 212 201 190 186 188 187 183 184 185 188 195 202 206 211 214 214 219 226 232 246 264 271 272 271 268 266 267 269 270 274 281 288 292 295 296 297 298 299 300 301 302 301 300 298 296 294 293
149 149 162 164 186 271 329 73 262 286 292 296 302 299 186 133 141 194 264 259 238 221 220 233 249 254 262 269 260 242 234 241 282 259 227 210 206 201 200 203 192 184 186 186 183 183 186 190 194 199 204 207 213 219 221 225 232 242 261 275 274 268 263 261 263 265 265 269 275 281 287 292 294 296 298 300 301 302 304 304 303 303 301 297 294 292
140 142 156 203 205 215 252 226 253 310 315 308 307 9 123 152 152 152 256 260 236 217 210 222 245 256 259 262 253 186 115 60 309 269 224 205 204 197 194 191 179 181 185 184 187 191 192 195 199 202 206 209 215 223 224 227 235 250 268 276 269 260 255 256 259 262 267 274 281 287 291 294 295 296 298 300 301 302 303 304 303 303 302 298 295 293
147 165 168 195 232 132 152 284 308 317 298 275 236 248 243 203 164 150 290 288 240 210 203 208 230 246 249 250 217 130 97 344 283 264 217 186 185 171 162 166 168 174 176 175 179 183 186 193 197 201 206 211 218 224 224 228 237 252 267 271 262 252 250 254 260 266 275 284 291 296 298 298 297 297 299 299 299 300 300 301 301 300 299 296 293 292
110 27 125 174 262 116 132 231 244 258 266 242 198 233 238 197 168 129 328 298 255 219 204 194 213 235 242 236 184 140 134 265 268 261 205 173 174 162 155 157 161 168 174 178 181 182 185 191 195 199 206 213 218 220 221 228 239 252 264 265 257 251 253 258 265 274 284 291 298 300 301 301 298 297 297 297 297 297 297 297 298 297 296 293 291 290
110 37 120 202 241 194 159 215 235 244 257 236 192 210 210 181 119 60 322 282 255 234 202 182 205 231 226 204 167 157 196 235 254 256 179 161 161 161 167 169 166 169 173 179 185 187 188 191 194 199 209 217 219 218 221 230 241 252 260 260 254 253 257 263 271 279 287 292 298 300 300 301 299 298 298 297 297 297 296 296 296 295 295 293 291 290
143 214 196 218 242 208 195 238 267 262 256 241 214 191 170 144 78 83 257 252 222 215 203 180 205 225 203 175 172 194 221 225 200 130 140 145 150 163 174 176 176 178 180 182 186 188 189 196 203 210 219 224 222 219 223 233 242 250 255 254 252 255 260 266 274 282 287 291 296 298 300 301 300 300 300 299 299 298 297 297 296 295 295 294 293 291
168 194 204 202 234 215 199 228 278 286 267 228 187 153 142 158 224 222 234 236 182 198 205 199 216 224 201 192 203 218 226 162 119 136 151 157 164 165 166 166 166 172 179 183 188 191 194 199 205 212 219 221 221 224 230 237 244 248 250 250 254 260 266 271 278 284 287 291 295 298 301 303 302 302 303 302 301 299 298 299 298 296 296 294 293 292
170 172 201 197 190 175 159 210 264 284 269 162 127 107 167 204 218 219 228 251 206 199 198 209 222 223 207 210 223 230 226 158 142 162 165 172 174 160 166 172 170 172 177 181 189 197 199 201 206 214 219 219 223 231 237 241 245 247 249 254 262 270 272 275 282 285 287 292 297 300 303 304 304 306 306 305 303 299 298 299 299 298 297 295 294 293
184 175 205 227 185 143 165 207 215 241 216 165 151 168 211 215 217 171 185 255 249 215 200 217 231 223 208 215 229 230 227 214 186 176 173 181 176 157 169 178 179 181 185 189 197 202 202 206 213 218 221 222 226 234 239 244 248 250 252 260 271 276 275 279 284 284 288 294 297 300 304 304 305 308 310 308 305 300 297 299 300 300 299 299 297 294
206 187 200 232 206 184 216 236 236 220 200 206 227 247 241 247 259 212 220 262 267 231 204 214 238 230 211 214 224 222 222 221 202 186 183 184 178 171 179 184 187 191 194 197 201 204 206 213 218 220 223 227 230 236 242 245 248 251 257 267 278 277 277 282 282 284 290 295 296 300 303 303 305 308 310 311 308 302 299 300 301 301 301 301 299 294
232 188 165 231 250 267 270 269 266 267 262 245 246 253 257 262 263 241 239 259 257 236 216 215 233 229 205 200 209 216 222 216 201 196 192 183 179 178 180 187 192 194 196 198 201 205 210 216 221 224 229 233 235 239 245 247 247 254 263 273 278 277 278 281 281 286 292 294 296 300 301 302 306 308 310 312 311 305 301 299 298 299 299 299 297 293
298 127 179 255 276 288 291 295 279 268 275 279 270 267 265 259 254 240 234 249 257 252 236 228 230 219 189 187 200 215 221 204 192 199 192 181 185 181 176 187 194 195 198 203 207 209 211 215 221 227 234 239 242 246 251 250 252 259 268 273 275 274 275 277 280 287 291 293 296 299 300 302 305 307 308 311 310 307 303 300 297 296 295 295 294 292
20 70 250 256 256 261 275 290 293 284 279 273 269 274 275 267 263 254 240 247 262 263 245 228 213 192 183 191 199 207 208 193 190 196 191 187 193 186 185 193 195 197 205 209 210 210 212 218 225 231 238 244 249 253 256 256 259 263 267 269 271 270 270 273 278 284 288 292 295 297 300 303 303 304 306 307 308 306 302 300 298 293 292 295 294 289
63 324 271 274 280 275 277 289 297 298 293 274 257 264 269 267 270 270 261 256 254 249 239 222 199 186 190 193 188 189 196 197 193 189 188 193 193 187 194 198 198 203 208 209 211 214 218 226 232 236 242 248 254 259 263 264 266 267 267 267 266 264 266 271 276 280 285 289 293 297 301 303 303 302 303 304 305 304 301 299 298 295 294 297 299 295
31 289 295 330 311 294 297 306 308 310 304 293 286 283 274 268 273 275 272 259 242 234 223 209 201 197 199 195 183 180 193 202 193 182 188 198 196 194 198 199 200 206 210 210 213 219 225 232 238 241 246 251 255 261 268 272 273 272 271 268 263 261 264 269 274 278 282 287 293 298 302 304 303 303 302 302 303 303 301 300 300 297 293 293 294 294
268 298 316 319 299 294 301 306 306 303 293 291 297 302 292 271 263 265 264 255 246 239 219 202 205 208 207 206 193 188 194 192 179 178 187 199 199 199 200 201 203 209 212 213 215 221 229 236 239 241 247 252 256 263 272 277 278 278 276 270 262 260 262 266 270 275 281 288 294 298 301 302 302 303 302 301 301 301 299 300 301 300 297 294 291 287